Showing default

TIGER-7, 59141

Orbit data source: Space-Track

TIGER-7, 59141 is a payload satellite owned by OQ Tech (RW) in SSO that was launched on Mon, 04 Mar 2024 UTC via an FALCON 9 launch vehicle from the Air Force Western Test Range (AFWTR). Payload-class satellites include a variety of spacecraft equipped with specific instruments for various scientific and technological missions. These include communications satellites like Starlink; space stations such as the ISS; scientific satellites like the Hubble; Earth observation satellites from companies like Planet Labs, Umbra, and HawkEye 360; GPS; miniature CubeSats for education and research; and military/defense satellites.

Loading next visibility...
Identifier
59141, 2024-043AV
Orbit
SSO
Country
Flag of RWRW / RWA
Related business
Manufacturer
NanoAvionics
Mission
Operational Commercial Communications
Bus & Motor
CUBESAT 6U, Unknown motor
Mass
~10 kg wet, ~10 kg dry
Launch date (UTC)
2024-03-04 (2 years ago)
Launch vehicle
FALCON 9
Launch site
Air Force Western Test Range (AFWTR)
Object type
Payload
Rocket body
Debris
Shape & HBR
Box + 2 Pan, 0.1 m
Radar Cross Section
0.080 m², Small (<0.1 m²)

Expand to show TLE details & history
Last TLE update: 7 hours ago

TLE from 7 hours ago
0 TIGER-7
1 59141U 24043AV  26125.40631102  .00017920  00000-0  34957-3 0  9996
2 59141  97.5440 274.5232 0005399 339.7932  20.3103 15.47556018121351
Epoch: 2026-05-05T09:45Z
TLE epoch observation values (Epoch: 2026-05-05T09:45:05.272Z)
Latitude
-0.00001°
Longitude
-95.03038°
Altitude
423.557 km
Speed
7.659 km/s
True Right ascension
18h 18m 05s
True Declination
0° 00' 00"
Sunlit
Object was in full shadow at epoch
Visualization orbit readout
Latitude
Unknown
Longitude
Unknown
Altitude
Unknown
Speed
Unknown
Apparent Right ascension
Unknown
Apparent Declination
Unknown
Sunlit
N/A
Visualization observer readout
Local Sidereal Time
00:43:44
Azimuth
Unknown
Elevation
Unknown
Doppler factor
Unknown
Orbital elements
Apogee altitude
424.484 km
Perigee altitude
417.143 km
Semi-major axis
6,798.95 km
Eccentricity
0.00054
Inclination
97.544°
RAAN
274.5232°
Arg. of periapsis
339.7932°
True anomaly
20.33179°
Mean anomaly
20.3103°
Eccentric anomaly
20.32104°
Mean motion
3.87151 °/min
Orbital period
92.99 mins
BSTAR
0.00034957
Loading maneuver chart data...
Computing Atmospheric mass density...
Loading historical data...
Loading historical data...
Loading historical data...
Loading historical data...
Loading historical data...
Loading historical data...
Loading historical data...

Documentation

Showing up to 5 results
|